GFSSGP_250_rhum_114.txt.gz
RH
24 27 29 30 32 31 23 18 16 16 16 15 15 15 15 14 15 15 15 14 14 14 14 14 15 17 16 16 17 18 18 18 18 17 18 20 22 22 22 21 21 21 22 21 20 22 21 22 23
30 31 30 29 27 28 31 31 29 26 23 23 24 22 19 20 29 23 20 17 15 14 12 11 11 11 12 15 15 15 16 16 17 17 18 20 21 23 24 23 24 25 27 23 26 27 29 33 34
38 41 43 53 54 30 25 26 31 34 33 31 32 29 28 29 30 27 25 22 19 18 16 14 12 11 10 11 12 13 12 11 12 15 16 19 21 25 28 28 26 25 31 32 40 38 39 37 39
46 52 57 63 74 41 30 30 35 32 31 36 46 44 46 46 44 40 37 32 26 26 23 20 20 17 16 13 12 12 13 12 10 11 14 13 14 17 20 25 32 38 44 40 51 52 45 53 47
62 55 56 63 86 74 41 32 31 33 33 34 43 48 70 75 67 56 52 53 46 41 38 32 27 24 22 21 21 20 19 20 15 14 13 13 13 15 22 33 51 48 53 61 70 59 59 58 56
74 72 70 73 94 94 53 34 28 32 35 36 32 53 82 71 64 62 60 56 50 47 50 50 44 38 33 32 33 32 30 31 27 22 18 16 16 15 21 37 58 52 70 86 87 80 80 69 67
90 92 79 87 86 100 83 40 43 47 46 48 47 47 40 46 50 50 48 45 44 43 44 43 43 46 43 41 39 45 46 41 36 31 31 27 21 19 19 30 51 50 76 90 98 100 90 87 73
100 98 94 100 93 55 59 60 66 92 70 55 62 54 41 37 45 49 55 57 54 58 56 59 48 37 36 35 38 40 50 49 44 45 43 40 37 30 24 23 30 62 71 94 94 91 98 100 88
99 100 100 100 100 78 93 100 100 78 79 90 85 60 48 44 42 61 57 53 75 72 61 62 62 46 37 35 37 36 42 46 53 50 50 58 63 46 49 36 30 52 67 96 100 100 100 100 86
57 98 100 100 100 100 100 100 99 90 96 100 91 72 54 55 56 52 65 73 66 98 87 74 64 47 39 35 42 50 43 39 42 48 60 58 62 59 68 48 42 79 100 100 100 100 100 89 82
49 64 92 100 100 100 100 100 100 100 94 100 96 83 62 59 51 50 67 78 82 95 100 100 80 63 70 54 45 43 38 46 37 33 58 64 65 71 77 58 65 83 100 100 100 100 99 78 73
47 66 75 92 100 100 100 100 100 100 100 98 89 94 73 66 57 52 53 80 99 100 100 100 100 100 99 93 66 47 36 48 43 41 32 47 58 67 76 57 71 84 77 99 100 100 100 100 75
48 70 100 100 100 100 100 99 88 100 100 100 97 100 99 88 66 50 58 73 94 100 100 100 100 100 99 98 100 100 86 53 36 37 49 38 52 71 74 68 54 73 95 77 94 100 100 79 91
65 66 86 100 100 100 100 99 100 100 100 100 100 99 97 94 86 67 54 52 55 87 98 96 81 100 100 100 100 97 100 84 60 41 61 78 76 72 72 72 59 74 95 91 75 81 88 80 100
47 64 100 100 100 100 100 100 100 100 100 100 100 100 97 93 80 74 64 53 48 52 60 93 100 92 100 100 100 100 100 99 69 49 43 94 100 89 78 74 67 61 78 85 89 76 83 98 100
51 55 68 87 100 100 100 100 100 100 100 100 100 100 100 100 90 70 58 47 42 43 70 52 55 64 97 100 100 100 100 100 70 63 47 51 98 100 95 81 83 74 96 82 90 86 84 89 100
61 55 57 86 100 100 100 100 100 100 100 100 100 100 99 92 92 78 66 50 44 42 64 88 83 75 80 83 100 100 100 100 74 57 68 48 80 100 100 94 77 81 70 93 90 98 82 99 100
69 76 79 81 97 100 100 100 100 100 100 100 100 100 99 95 87 79 62 49 50 50 74 94 99 85 80 100 100 100 100 99 79 65 64 70 48 99 100 91 82 91 76 79 100 100 87 100 100
57 69 76 88 94 88 100 100 100 100 99 95 81 67 63 63 57 50 47 50 55 70 60 64 73 69 68 65 93 94 100 100 77 67 52 51 54 52 100 100 86 89 93 74 92 100 100 100 100
44 44 52 71 76 82 86 85 73 70 66 63 60 54 52 50 51 65 71 77 87 93 89 74 62 56 52 50 48 65 81 100 100 80 44 46 54 41 65 100 100 98 95 80 100 100 100 100 100
58 50 48 42 45 48 55 55 59 62 58 52 50 51 48 44 48 53 64 64 78 65 66 56 49 53 48 41 43 45 61 88 100 85 68 84 45 45 38 88 100 100 100 86 100 100 100 100 100
97 88 85 58 49 47 39 37 55 48 43 46 73 59 62 51 48 44 48 43 47 48 44 41 34 33 38 38 33 42 54 59 100 98 60 60 49 54 37 51 100 100 100 91 100 100 100 100 90
93 100 100 100 79 47 51 35 52 68 38 44 47 46 44 48 39 36 41 38 36 34 31 31 25 21 20 23 25 29 39 56 59 78 94 62 56 50 35 44 100 97 100 96 100 100 100 100 66
32 36 39 50 46 34 50 42 51 56 39 26 32 40 32 27 34 29 25 22 27 28 26 26 30 26 18 16 17 23 24 33 43 71 100 80 55 44 30 38 100 98 100 97 100 100 100 93 71
19 20 22 24 29 26 25 30 43 30 33 28 32 32 31 25 22 23 20 17 16 15 16 15 15 16 15 11 12 17 22 28 30 32 66 64 44 45 28 41 100 100 100 95 100 100 100 92 89
17 19 20 18 22 23 23 26 26 26 27 29 26 23 25 32 21 17 16 14 12 12 10 11 11 10 10 9 9 11 12 15 23 33 44 47 37 32 26 40 100 100 100 100 100 100 100 96 84
25 26 27 25 24 24 27 23 24 28 24 19 24 25 29 24 21 18 14 15 13 11 10 9 9 9 8 8 9 9 10 11 14 18 29 33 32 26 25 40 97 100 100 100 100 100 100 100 100
36 32 27 30 28 27 24 25 21 21 23 22 25 21 18 21 18 16 12 10 9 8 8 7 7 7 7 7 8 8 9 10 12 13 18 23 23 20 26 52 96 100 99 100 100 100 100 100 100
47 41 42 41 37 34 25 22 20 22 27 28 20 18 17 13 11 9 8 9 10 15 14 15 15 12 10 10 11 11 10 10 11 12 14 19 18 24 29 69 100 94 97 100 100 100 100 100 100
55 55 50 38 30 29 30 32 18 23 23 19 16 14 11 10 9 13 19 29 38 44 34 27 21 19 18 15 14 13 15 26 29 31 22 22 24 31 35 93 97 94 99 83 100 100 100 100 100

GFSSGP_250_rhum_117.txt.gz
RH
39 36 31 26 28 29 28 28 27 25 23 24 23 23 20 19 18 16 15 14 13 12 12 12 13 13 13 14 14 14 14 16 16 18 18 17 18 19 19 19 18 18 18 18 18 18 17 18 18
42 45 41 39 36 36 39 36 36 30 27 25 26 28 28 26 28 26 24 22 21 19 16 16 14 14 13 13 12 12 11 11 12 13 15 16 16 18 18 18 18 17 20 19 21 25 26 23 26
51 54 51 51 47 45 44 40 45 40 30 25 25 27 28 30 34 33 32 29 27 24 23 21 19 18 16 16 16 17 17 14 12 11 12 12 14 14 13 13 14 15 17 17 21 23 28 47 44
100 62 59 62 64 62 56 53 53 52 42 37 28 29 30 31 32 42 40 39 35 33 34 33 32 30 28 24 22 22 25 24 23 18 17 16 14 13 13 14 15 14 18 18 25 31 40 58 70
80 92 100 61 69 72 74 69 72 64 59 51 30 30 35 37 38 43 50 52 52 53 55 46 43 46 42 37 35 33 33 31 32 33 31 25 21 19 16 16 16 18 18 28 28 42 46 55 70
55 63 80 100 95 74 85 82 87 82 69 53 42 31 56 51 48 45 49 40 41 47 50 53 52 49 50 48 46 42 42 39 37 36 39 37 32 29 24 24 22 22 21 25 45 50 51 69 92
39 42 51 74 100 100 100 96 98 87 80 65 46 45 63 56 63 56 59 45 38 34 33 37 41 43 40 36 36 36 36 37 34 35 34 36 39 41 38 34 30 28 28 25 38 50 63 72 74
26 36 43 49 75 100 100 100 100 100 100 87 68 85 100 53 74 76 71 59 54 47 39 41 41 46 50 44 42 36 35 34 33 33 35 34 42 47 49 52 52 44 43 36 37 40 53 62 85
28 28 33 45 48 100 100 100 100 100 100 96 100 100 95 85 86 96 86 65 59 59 54 44 44 43 50 70 59 60 43 36 33 30 32 34 33 42 64 64 61 65 58 49 38 40 61 88 96
36 27 29 31 39 50 100 100 100 100 100 100 100 100 100 100 100 95 87 77 58 58 57 54 45 58 73 89 79 75 58 56 40 37 34 34 47 42 37 63 72 75 58 60 94 100 100 100 100
41 30 26 31 31 42 54 88 100 100 100 100 100 100 94 100 100 99 97 92 70 65 65 59 51 63 85 90 100 95 100 97 91 72 52 42 42 42 42 37 57 79 78 62 81 97 100 100 100
44 37 37 28 35 40 47 56 99 100 100 100 99 95 100 100 100 100 100 89 80 72 70 68 57 53 66 90 80 100 100 100 100 72 81 55 36 42 40 45 52 61 73 63 53 75 100 100 100
50 50 42 34 38 43 53 82 82 100 100 100 100 100 100 92 73 95 100 100 93 91 82 74 70 61 53 100 92 96 100 100 100 100 94 71 44 36 41 54 69 58 66 69 57 57 63 93 100
66 61 60 48 37 37 44 71 100 100 100 100 100 100 100 99 100 100 100 100 100 98 94 83 77 68 62 78 100 100 100 99 96 97 100 59 69 62 39 50 85 90 75 70 68 54 80 90 98
69 64 61 65 48 50 44 47 78 100 100 100 100 100 100 100 100 95 100 100 100 100 96 83 74 69 65 63 92 76 74 100 98 99 100 100 86 89 43 43 98 97 98 75 70 66 74 86 95
70 64 58 56 54 48 51 51 76 71 100 100 100 100 100 100 100 100 100 100 91 87 99 100 97 82 74 63 49 50 66 100 100 100 100 100 88 84 95 43 83 100 92 90 75 76 81 90 88
78 68 60 57 55 63 55 56 48 66 100 100 100 100 100 100 100 100 100 100 100 100 82 80 78 77 70 66 54 48 44 69 88 90 95 100 100 100 87 64 41 100 91 91 89 85 88 76 88
58 53 55 60 66 56 65 68 60 57 67 100 100 100 100 100 100 100 100 99 100 96 82 71 76 72 63 58 54 65 92 76 88 91 100 100 100 100 90 66 54 50 93 83 85 97 90 63 89
70 48 47 49 42 50 54 49 70 71 67 78 100 100 100 100 100 100 100 100 97 90 77 69 61 60 60 58 54 73 99 100 99 100 100 100 100 100 100 95 69 62 94 76 83 96 86 76 71
65 53 41 47 47 41 51 50 46 61 71 68 74 87 100 100 100 97 95 92 83 67 62 61 56 53 73 70 59 62 85 80 87 75 81 97 100 100 100 99 81 81 58 92 84 86 99 99 97
60 47 44 52 47 47 64 48 58 50 52 64 71 74 77 80 86 84 78 75 67 61 57 54 53 53 56 57 67 66 70 70 73 67 69 64 77 86 100 100 62 53 50 99 81 81 93 100 100
48 57 47 39 35 37 44 36 46 70 55 33 46 72 70 70 72 72 69 64 61 61 56 50 49 47 47 44 46 50 47 42 51 60 69 63 69 89 100 100 91 64 60 47 100 76 86 90 100
51 47 38 30 26 22 28 27 21 100 33 25 36 41 43 50 56 63 62 54 48 44 41 40 37 38 40 41 32 35 36 39 48 45 67 70 64 100 87 100 100 57 51 39 95 95 78 96 94
44 32 20 14 12 12 15 16 18 25 52 24 27 49 63 55 45 45 46 48 43 39 30 26 27 30 29 30 30 33 33 38 39 45 67 89 86 73 81 100 100 62 47 46 56 100 66 85 94
24 17 13 11 10 9 12 12 17 16 24 30 27 27 32 63 84 75 64 36 32 30 27 28 29 28 24 19 17 17 19 20 23 33 42 69 95 99 100 100 100 80 56 78 45 99 70 78 100
12 12 13 10 12 11 10 12 12 19 19 21 21 20 23 23 26 22 20 18 23 28 26 23 17 18 18 17 15 15 14 15 15 16 20 31 65 87 100 100 100 90 50 72 42 93 75 84 100
17 14 15 21 23 18 31 29 11 24 23 21 23 21 21 22 22 22 28 26 16 16 17 18 16 14 13 13 12 12 11 11 11 12 13 14 24 46 60 80 83 99 51 46 40 96 62 100 100
21 25 35 33 29 35 39 37 28 27 30 26 25 28 26 24 24 24 21 20 19 16 14 13 12 11 9 8 8 8 8 8 9 10 10 10 14 38 46 70 49 46 49 42 40 68 82 100 100
38 50 31 43 44 41 33 28 26 26 24 28 34 31 21 19 21 22 20 19 18 14 11 10 9 9 8 8 10 10 8 7 7 8 10 12 31 45 47 57 59 50 37 34 38 76 97 100 100
44 52 76 55 45 36 32 37 34 31 36 38 30 20 27 21 21 20 16 12 12 29 36 30 25 22 18 15 14 14 12 11 10 9 49 34 60 66 68 54 68 30 21 30 40 62 100 100 100

GFSSGP_250_rhum_120.txt.gz
RH
59 93 66 48 41 44 44 42 38 32 36 42 31 26 22 20 20 20 22 24 19 18 17 16 15 15 14 14 14 14 13 14 13 13 13 13 13 12 14 14 15 18 19 18 19 19 17 17 15
39 55 82 86 57 49 52 49 47 45 41 43 44 39 32 24 24 22 22 25 24 22 22 22 21 21 21 21 21 20 21 20 19 19 18 17 16 16 14 13 13 14 14 15 18 21 17 18 18
40 31 30 59 93 89 63 53 45 48 47 47 45 47 35 37 28 25 27 26 25 26 29 26 22 22 21 23 25 26 27 29 25 21 20 21 20 23 22 20 17 15 14 16 14 14 21 26 29
45 40 44 26 28 84 98 88 53 47 49 52 55 47 47 49 35 29 27 32 38 38 38 29 27 24 24 25 28 29 33 34 35 32 30 27 26 27 23 24 26 22 18 16 17 18 26 25 28
52 59 50 30 27 38 55 79 69 73 58 55 60 68 74 62 57 34 32 44 45 40 45 40 34 34 31 28 33 43 41 40 40 42 37 33 31 30 28 29 29 31 30 25 20 21 22 24 38
80 62 46 25 25 44 46 38 73 73 97 87 84 100 100 66 72 57 44 54 52 52 59 56 45 43 40 36 34 32 30 31 32 32 32 36 32 29 28 29 33 36 42 36 29 27 25 45 58
88 57 50 44 31 27 30 37 45 71 100 87 100 100 100 78 98 100 65 77 90 67 71 65 57 42 44 39 39 35 31 31 31 34 33 36 33 29 27 29 32 39 48 46 45 35 39 32 43
77 64 52 57 48 37 27 33 46 70 81 100 99 93 100 93 90 100 82 93 98 76 89 78 59 48 46 45 45 44 37 42 50 41 37 36 43 37 34 33 31 35 41 55 54 49 45 46 44
95 86 68 57 41 50 30 31 32 45 48 92 100 100 100 100 96 100 100 100 100 100 100 87 60 55 56 50 51 54 44 43 75 83 80 66 66 54 46 48 44 42 43 39 57 64 56 49 62
99 83 80 63 62 51 39 29 28 37 41 58 100 100 100 100 100 100 85 100 100 100 100 75 63 60 58 65 60 63 53 45 61 73 57 68 75 100 80 44 52 43 40 42 38 61 68 58 68
100 100 86 75 68 51 49 40 35 31 44 47 69 100 90 90 80 98 96 100 100 100 100 88 82 64 50 71 67 58 60 65 67 57 95 100 70 83 63 52 47 40 40 49 38 36 59 68 61
100 100 93 86 65 61 56 49 47 41 34 39 45 57 87 100 100 100 100 100 100 100 100 99 92 100 80 63 78 76 99 100 93 94 100 49 55 75 99 79 64 55 43 42 67 44 51 63 67
77 99 97 85 82 63 52 59 52 48 46 38 41 59 68 76 100 100 97 88 81 71 87 82 100 89 82 87 79 87 100 85 100 100 100 100 80 77 91 56 77 100 55 45 63 67 76 59 56
86 99 97 88 84 74 67 59 57 55 50 48 45 44 84 100 99 77 72 84 94 95 99 100 100 100 100 77 67 93 100 100 98 100 100 100 87 66 100 100 86 97 64 38 57 90 95 82 61
100 100 99 100 93 85 63 61 62 60 54 51 52 50 48 95 100 100 100 100 82 91 100 77 69 85 100 100 96 78 56 78 99 100 100 91 60 47 98 94 85 92 93 53 57 88 98 98 81
81 99 88 97 90 87 87 92 74 62 54 56 58 59 57 57 100 100 100 100 100 100 100 100 100 100 100 100 98 88 86 86 85 87 100 99 58 57 100 99 100 60 100 70 89 64 100 100 82
72 71 96 100 100 90 88 100 98 86 69 61 58 60 61 56 66 100 100 100 100 100 100 100 100 100 100 100 100 100 94 74 76 75 60 56 53 52 62 74 96 100 100 70 100 62 83 100 99
45 56 80 86 95 82 80 68 78 80 80 68 58 50 63 58 53 54 100 100 100 100 100 100 100 98 100 91 86 86 82 60 54 61 54 51 54 56 58 70 66 74 100 90 93 93 69 100 100
80 82 65 67 63 56 49 48 59 62 59 64 57 46 42 49 49 56 57 66 100 100 100 100 100 100 100 100 98 95 97 85 67 59 64 73 100 100 79 91 98 87 80 100 100 69 51 65 100
100 100 91 75 74 63 54 52 49 50 52 49 53 59 46 38 38 60 59 54 77 100 100 100 100 100 100 100 100 97 90 74 69 63 65 65 64 98 100 100 100 100 85 84 94 100 58 46 83
100 100 94 88 77 62 55 51 60 62 46 39 42 30 27 34 43 40 58 57 58 72 89 93 93 89 91 93 89 81 72 68 64 60 77 67 76 79 94 100 90 98 77 66 81 96 76 45 68
78 53 52 68 68 60 56 54 51 49 38 41 20 13 25 34 33 48 46 53 60 59 61 71 70 70 72 65 66 68 71 66 64 58 58 56 67 62 92 82 83 98 69 67 100 100 94 48 51
79 75 63 54 51 51 50 45 31 36 23 15 15 14 15 19 23 30 44 47 52 56 58 60 60 63 62 59 62 66 65 56 68 61 47 49 53 60 60 100 84 100 84 96 99 88 100 70 50
67 67 77 77 45 33 44 34 30 18 12 9 8 8 9 11 14 19 32 41 45 49 48 51 56 64 66 61 60 58 52 62 50 54 47 39 45 58 49 55 80 81 96 73 100 88 96 75 55
71 60 47 47 43 30 34 26 12 8 9 12 10 7 7 10 13 15 20 27 33 36 39 40 41 53 55 75 90 83 49 35 30 29 30 38 33 40 39 39 80 100 98 71 77 80 100 96 59
66 51 48 34 29 24 17 13 10 7 20 19 25 10 8 9 12 16 19 21 26 29 32 36 35 44 57 45 36 28 22 23 23 27 26 24 25 33 43 42 49 78 79 100 74 78 99 96 64
56 48 39 24 16 12 15 21 11 17 36 38 33 30 19 13 10 11 15 20 21 23 24 25 25 25 24 24 26 21 17 16 15 14 13 13 15 22 32 33 23 68 100 74 80 48 60 61 67
39 29 19 14 12 15 18 25 32 36 40 34 32 40 36 28 25 22 25 23 20 21 23 23 24 23 21 19 19 17 15 14 13 12 11 10 10 11 18 18 22 83 100 98 85 94 49 56 60
18 14 15 14 18 18 35 48 45 27 27 40 52 43 40 33 31 31 23 19 22 25 25 25 24 22 18 13 11 10 10 9 9 8 8 8 9 10 13 19 82 100 100 100 90 100 71 49 62
14 16 19 32 43 42 42 49 50 35 35 42 41 40 34 35 32 28 29 29 28 28 27 20 16 15 15 14 15 20 20 19 13 8 7 7 7 9 11 70 80 80 77 82 95 100 65 48 64

GFSSGP_250_rhum_123.txt.gz
RH
24 29 35 48 42 35 33 34 27 31 38 42 46 45 38 42 33 37 36 21 22 22 18 18 18 20 19 19 19 19 20 20 20 19 16 15 17 16 16 15 15 14 13 13 13 13 12 13 14
41 37 47 56 53 42 42 42 33 31 35 38 33 36 42 41 40 50 43 38 29 25 22 22 21 22 22 22 21 21 22 24 24 23 23 21 23 23 22 22 20 22 21 18 17 16 14 14 16
62 55 55 60 64 65 57 47 36 26 28 59 50 40 30 31 36 44 49 56 37 29 27 26 26 26 28 25 23 24 23 22 22 21 21 21 22 23 26 26 26 28 27 24 22 23 20 18 17
54 42 52 76 84 67 58 38 34 34 29 47 60 54 35 41 45 60 68 59 42 35 34 30 29 38 38 34 34 30 32 29 29 29 26 25 24 22 23 24 27 27 27 28 28 31 28 25 23
59 71 69 72 98 83 62 49 39 43 27 26 42 58 76 69 83 81 78 93 80 67 48 40 51 45 47 48 36 32 34 34 35 34 30 27 27 28 27 27 26 26 26 29 31 30 33 32 28
73 72 99 100 100 84 76 55 47 44 43 31 25 43 92 88 100 100 100 100 83 91 89 61 71 61 57 66 55 41 34 38 47 44 38 30 32 33 35 31 28 25 25 26 34 36 35 40 40
89 78 100 100 97 96 86 63 45 54 40 28 28 31 42 85 98 100 100 100 94 100 100 84 77 87 87 83 77 48 33 35 39 44 41 32 31 36 46 51 56 53 31 26 28 62 48 48 52
42 43 36 72 98 99 96 68 54 57 46 35 31 28 39 41 59 90 100 100 87 94 97 100 97 100 100 100 85 57 37 32 52 50 45 43 37 58 50 49 98 91 56 43 30 29 63 65 53
65 51 66 49 39 44 66 92 66 69 50 48 35 33 35 42 44 54 94 100 100 100 99 100 100 100 100 100 94 56 56 44 40 53 55 57 54 53 57 100 100 86 62 51 40 33 34 41 56
88 77 63 63 72 56 40 36 67 60 55 60 34 34 33 40 46 50 82 64 92 100 95 65 64 77 98 100 100 98 84 52 54 74 78 83 78 63 47 76 100 78 100 66 43 46 33 38 39
88 89 77 53 58 57 62 51 48 70 76 57 53 37 44 39 36 46 69 80 81 95 80 83 83 82 98 100 100 81 47 62 81 86 90 100 91 75 94 58 57 98 100 69 49 59 48 32 45
100 96 73 59 75 100 72 72 90 90 83 51 47 44 44 46 42 42 42 53 64 67 54 50 76 93 100 99 82 70 78 92 99 100 97 73 96 96 79 96 80 73 49 84 94 60 45 36 47
100 100 100 100 100 100 98 76 81 100 90 82 66 54 44 60 55 48 46 60 99 100 89 87 100 100 78 56 49 90 100 100 100 100 90 87 100 100 100 99 91 84 52 51 80 62 46 56 36
100 100 100 100 100 94 100 91 64 100 70 81 90 96 83 68 64 59 49 42 69 71 91 100 100 96 88 84 65 87 100 100 100 100 100 100 100 100 100 100 76 100 66 60 92 92 66 53 52
91 100 100 100 100 100 98 83 60 70 96 95 89 98 100 99 88 74 64 55 47 86 97 100 100 100 100 100 73 34 30 44 95 100 100 100 100 100 78 79 72 75 64 47 80 100 83 72 52
100 100 100 100 100 100 100 100 75 60 55 54 79 91 100 99 84 82 72 76 67 53 63 96 100 100 100 100 100 100 99 63 68 86 100 100 100 100 100 100 78 64 72 40 44 84 87 94 55
100 100 100 100 100 100 87 98 100 90 59 64 70 100 93 82 65 52 51 60 67 62 60 87 89 97 100 100 100 100 95 81 65 49 66 92 99 95 100 98 72 93 99 46 36 61 78 79 100
100 100 100 100 100 100 90 73 74 98 100 98 100 96 78 70 61 53 61 57 57 62 60 54 64 90 100 100 100 100 100 100 97 82 54 56 71 90 100 100 85 100 98 74 41 39 58 67 100
95 91 74 72 60 62 55 63 83 74 100 100 89 66 46 35 40 46 41 46 49 49 50 53 52 46 71 100 100 100 100 100 100 91 95 72 62 75 100 70 82 100 100 85 56 41 52 70 60
47 44 43 41 40 39 70 98 94 75 57 55 49 46 42 31 29 36 41 36 39 42 40 40 46 45 42 53 98 100 100 100 100 100 95 95 71 58 41 69 100 99 93 76 67 48 48 68 69
90 82 83 59 56 57 53 49 41 53 73 52 57 57 49 41 28 25 25 22 20 20 26 34 33 37 42 49 59 89 100 100 100 100 100 100 100 90 60 80 84 98 69 100 60 59 64 56 62
79 82 60 62 69 75 70 45 46 52 55 59 55 49 40 28 23 24 20 17 17 19 22 24 31 32 33 47 57 68 80 93 100 100 100 99 94 85 73 54 86 100 95 99 92 74 72 62 77
63 62 55 58 54 43 53 51 49 66 69 49 37 39 32 22 19 17 12 9 8 10 14 18 21 22 25 35 48 54 58 71 84 93 96 94 85 77 71 60 53 67 81 100 97 78 88 73 88
56 60 61 53 59 49 68 60 60 62 35 28 26 24 20 14 10 8 8 8 8 7 7 9 13 16 21 25 35 47 53 59 65 69 74 71 66 63 63 65 61 57 61 78 76 90 67 99 99
68 60 64 58 58 68 79 67 53 35 27 29 19 16 13 12 10 10 10 10 10 10 8 8 9 13 18 23 30 42 47 55 62 64 62 65 68 73 76 79 71 58 52 50 61 64 73 100 100
50 56 55 62 64 80 82 44 41 22 21 14 12 10 10 10 12 15 17 16 15 12 12 12 11 12 14 18 22 32 40 41 48 58 60 59 51 48 60 68 70 60 44 34 46 69 82 94 100
56 56 59 65 70 54 35 30 18 15 14 12 10 12 17 20 21 29 31 27 21 17 15 12 11 12 13 14 17 19 22 25 30 33 37 40 39 48 43 29 25 26 22 27 38 61 82 93 100
42 46 64 75 43 27 20 15 13 12 13 15 20 30 30 28 23 26 30 28 18 16 18 21 21 20 19 18 17 17 18 18 19 20 20 20 20 19 19 19 18 17 18 20 31 76 91 97 100
39 51 48 38 27 16 13 15 16 13 19 28 37 44 47 44 45 36 29 21 20 23 24 25 25 24 24 23 21 20 18 17 15 14 12 11 11 9 10 12 12 12 14 15 26 69 100 92 100
44 41 30 17 17 18 15 24 38 40 40 42 47 53 53 49 49 43 37 34 32 33 34 34 30 28 24 21 18 18 16 15 13 11 10 10 10 9 8 9 12 11 14 12 29 64 100 100 100

GFSSGP_250_rhum_129.txt.gz
RH
22 40 39 40 80 82 38 31 21 24 49 67 80 57 40 30 27 22 23 36 35 32 31 34 34 38 41 36 27 22 21 21 21 19 21 21 21 22 22 20 20 19 19 21 20 21 21 19 18
40 38 22 33 28 47 51 22 62 80 99 100 83 66 55 44 34 27 22 23 36 45 39 32 33 37 44 51 34 31 32 26 26 29 35 29 23 21 21 21 21 21 20 20 20 20 19 20 24
57 59 38 27 22 35 32 52 42 60 93 100 93 87 56 32 37 33 31 29 24 22 43 40 35 31 35 57 40 34 39 31 26 29 49 43 35 33 21 25 26 25 24 22 21 21 21 24 28
58 92 70 37 29 18 22 22 30 28 68 100 100 84 33 29 40 42 41 37 29 22 21 36 48 43 33 63 56 48 44 41 35 41 65 63 51 39 28 30 31 31 31 26 24 23 28 27 27
68 75 100 63 40 30 16 20 42 49 52 41 44 52 33 26 42 37 37 38 36 28 22 30 58 74 72 66 69 75 81 57 46 65 92 93 70 56 43 31 41 49 48 40 34 36 36 38 38
97 94 97 99 71 56 29 34 64 65 68 60 47 43 46 50 40 41 38 35 40 31 25 25 41 68 70 76 87 68 82 81 79 75 96 100 92 74 56 47 45 63 61 55 42 40 38 32 32
40 60 100 100 95 76 60 58 64 62 75 88 62 58 49 40 44 53 50 30 25 31 29 25 33 72 79 58 57 50 52 93 99 100 99 100 100 100 82 53 60 78 73 52 48 46 37 40 38
97 100 97 100 100 90 58 69 100 100 89 91 71 68 76 43 38 72 64 44 28 27 40 32 34 74 98 87 60 45 56 80 88 79 74 85 100 100 100 66 62 93 88 60 54 51 42 43 43
87 67 58 67 84 90 100 82 96 97 100 83 97 99 78 40 55 78 62 41 37 51 49 42 37 35 53 92 91 76 83 58 58 65 64 77 65 100 100 80 71 91 89 67 64 50 48 49 48
82 78 80 64 57 57 72 88 96 96 100 100 100 100 75 59 82 80 62 39 40 40 49 57 45 69 67 48 63 94 100 100 91 73 52 37 85 92 76 59 87 100 96 94 77 66 57 54 58
65 76 83 71 62 60 42 39 98 80 81 96 100 100 94 93 84 48 55 60 40 42 38 46 64 55 42 39 48 63 86 96 84 95 77 56 81 49 53 65 79 91 87 92 76 72 68 72 64
65 65 79 67 50 41 35 34 42 83 98 84 95 100 100 100 86 100 100 69 45 46 42 36 36 54 57 51 41 37 83 70 65 92 84 68 81 55 85 83 89 83 83 88 79 88 99 79 78
51 48 44 44 42 34 34 37 74 94 58 48 53 84 72 100 91 100 86 50 50 63 55 52 40 44 55 46 49 41 41 53 69 75 68 63 88 100 97 71 94 100 100 100 95 99 80 67 99
59 48 34 29 29 40 35 49 69 57 71 81 80 71 84 100 87 83 75 62 88 94 72 52 56 40 44 45 44 51 48 38 48 68 82 88 95 87 93 98 94 100 100 100 99 76 76 89 100
66 52 40 34 39 46 44 55 48 64 71 95 100 93 100 98 96 95 78 99 100 91 62 48 55 68 93 86 74 71 66 60 52 51 64 94 100 86 100 100 100 100 100 100 100 100 100 100 100
79 68 76 66 58 56 53 54 98 100 100 99 75 86 100 100 100 99 100 98 61 50 57 62 64 77 77 82 80 70 60 44 36 38 38 59 92 77 84 100 100 100 90 100 100 100 100 100 100
82 81 77 88 87 98 99 100 100 100 100 100 100 100 100 100 100 100 87 73 77 90 82 75 73 70 66 60 60 51 49 48 48 43 35 37 64 72 100 100 100 100 100 100 100 100 100 100 100
97 79 74 64 73 50 74 94 100 100 100 100 100 100 92 79 61 86 100 100 99 91 83 58 52 63 62 66 57 55 56 47 45 38 36 28 33 42 64 98 100 100 93 100 98 100 100 86 99
94 88 84 69 62 51 54 55 65 75 72 66 64 62 51 48 51 66 74 75 69 69 80 74 62 55 54 50 43 43 58 68 50 47 40 30 24 28 39 82 100 100 100 99 100 100 100 100 100
88 77 64 52 58 57 60 60 50 47 50 51 59 70 80 86 86 84 76 72 65 57 56 56 51 47 47 43 38 32 36 46 46 36 40 41 27 21 23 46 71 98 100 100 100 100 99 100 100
69 60 54 51 73 83 82 72 63 58 54 58 52 51 52 52 50 49 53 54 51 45 44 45 44 41 38 36 34 33 40 36 28 25 28 33 34 23 20 23 57 87 100 100 99 100 91 97 100
57 52 48 53 62 58 55 50 55 42 47 49 57 57 56 52 54 55 52 46 41 40 36 39 37 28 22 20 21 19 20 19 19 20 20 26 28 29 20 21 28 53 89 100 97 100 100 87 100
59 59 61 53 46 45 46 51 47 46 55 58 51 45 44 43 39 34 36 31 27 21 22 20 19 17 17 16 13 10 10 11 13 13 17 18 19 22 23 22 20 30 71 100 91 93 100 100 100
79 68 66 64 60 52 61 53 47 47 43 40 41 38 39 38 33 22 20 20 19 18 19 20 17 14 12 10 8 7 6 6 6 8 10 15 16 17 23 25 23 22 35 69 89 91 100 100 100
83 74 65 59 56 51 50 44 48 51 47 44 42 32 31 26 23 22 20 18 18 18 14 12 10 9 8 8 8 8 8 6 5 6 6 9 13 14 15 23 21 23 24 41 57 78 97 100 100
71 67 56 50 51 52 62 53 50 47 45 40 32 31 26 23 19 18 18 19 13 10 9 10 9 9 9 9 10 10 10 9 7 6 5 6 9 12 12 18 21 25 28 26 26 30 44 57 85
76 75 73 63 56 50 54 55 49 46 42 32 28 23 18 15 16 19 15 11 11 11 11 13 13 14 14 14 15 15 14 10 9 8 7 6 6 10 12 16 20 26 28 40 37 27 40 55 73
59 59 60 57 52 48 45 44 47 48 32 25 25 20 17 17 15 11 11 13 17 22 23 22 22 15 17 19 21 16 17 14 10 9 9 8 7 7 11 13 18 22 26 34 46 44 54 36 55
82 88 84 74 49 47 49 48 46 29 22 19 17 18 17 12 13 14 18 23 24 29 25 28 21 26 30 32 29 20 17 21 15 11 10 10 9 9 11 16 18 24 33 34 36 42 40 62 55
90 84 72 56 44 45 42 27 29 20 16 16 19 16 14 16 20 22 25 29 34 28 29 29 32 34 39 37 37 32 24 23 22 21 16 13 13 12 12 15 20 25 32 36 36 37 40 43 49

GFSSGP_250_rhum_132.txt.gz
RH
83 68 67 71 46 28 22 19 31 42 58 60 92 95 86 80 64 54 36 27 23 24 22 23 40 36 34 34 36 40 40 30 30 32 26 25 28 28 24 23 21 19 20 20 20 20 19 18 18
76 73 53 54 56 51 40 25 24 39 30 36 47 61 81 70 66 39 24 22 20 19 21 21 21 22 40 34 33 38 52 48 33 33 30 30 42 40 45 43 27 22 27 26 25 24 25 22 22
94 81 95 85 51 47 58 39 27 23 34 43 74 47 33 60 60 36 37 26 27 24 21 21 23 21 24 48 45 39 56 63 41 34 39 29 42 57 64 56 52 38 29 34 42 39 34 32 28
87 99 100 98 73 54 56 86 43 27 30 39 48 56 43 46 42 55 48 34 34 24 25 21 24 27 23 24 55 46 68 90 64 43 49 38 39 83 78 67 60 41 38 44 54 47 37 32 30
100 100 83 68 68 46 57 100 66 49 31 33 39 47 60 64 48 63 55 40 36 36 28 32 25 26 24 22 28 86 83 85 84 84 77 52 46 58 88 86 66 54 37 51 58 43 42 38 36
90 97 91 93 79 50 83 100 100 71 54 35 48 44 62 77 87 73 69 60 36 34 34 36 31 26 28 25 25 38 87 100 86 90 81 83 61 61 86 98 87 77 47 47 54 58 49 42 39
74 71 65 65 54 71 83 69 77 82 78 55 70 74 69 89 100 100 90 73 52 33 44 50 35 35 33 34 28 30 41 79 92 70 72 86 95 88 70 74 99 99 69 43 52 59 58 57 53
95 77 75 74 69 84 69 62 57 53 66 55 33 66 100 100 100 100 100 85 48 47 53 56 36 40 34 59 46 38 60 53 84 82 62 88 99 84 55 51 75 84 84 43 61 84 81 69 64
61 71 55 70 70 81 76 80 73 61 54 52 46 55 92 96 99 100 100 93 93 82 89 75 38 49 41 39 62 84 46 45 98 90 74 87 67 54 53 40 53 60 53 47 74 67 76 66 65
90 74 73 51 47 44 47 63 68 66 60 50 41 35 64 52 66 100 100 100 99 100 100 84 76 72 42 46 40 38 58 48 55 62 77 83 75 67 60 48 55 41 44 48 69 64 53 69 80
78 67 62 55 52 47 50 64 66 63 54 44 34 29 37 51 53 87 100 100 100 100 100 98 98 93 63 59 44 33 33 50 39 41 61 76 85 74 52 59 58 44 38 49 74 65 86 83 100
67 58 54 52 54 51 44 41 45 45 35 35 27 27 40 74 83 63 84 98 100 100 100 100 100 100 68 68 61 37 34 33 36 38 70 67 88 87 90 85 62 59 78 90 65 100 100 96 67
68 64 55 48 45 54 64 56 45 36 32 26 30 32 43 39 35 44 43 63 91 100 100 71 96 99 94 93 81 43 41 46 38 37 72 100 82 94 92 89 98 94 93 93 40 54 96 100 97
67 65 63 55 46 42 49 55 52 50 48 37 34 36 33 30 29 30 42 47 39 65 91 75 100 100 100 100 96 52 40 43 39 40 35 33 71 92 91 96 89 76 100 96 88 50 60 99 100
59 54 60 46 42 38 46 53 60 63 53 52 32 27 29 31 37 62 66 65 62 80 91 100 100 100 100 100 74 74 57 48 50 44 43 34 28 58 100 82 90 82 74 64 55 93 90 72 98
64 62 62 57 60 58 62 52 60 65 48 38 40 66 86 99 100 100 100 95 98 100 100 100 100 95 85 94 99 88 90 77 65 53 52 47 34 26 34 72 69 99 95 83 70 100 100 87 71
65 62 82 97 97 91 87 88 83 65 60 52 53 54 56 68 75 88 92 90 86 77 78 74 71 72 78 94 98 100 100 95 79 65 49 40 33 27 24 39 61 97 100 100 100 100 100 100 70
81 85 87 100 100 98 100 96 89 95 88 72 54 51 47 47 50 50 54 66 62 58 49 54 58 72 86 90 95 90 82 78 70 64 61 50 38 33 29 24 36 62 89 99 98 100 78 98 73
100 100 100 100 97 100 100 100 94 85 75 58 53 43 41 45 59 59 55 50 46 45 47 54 73 100 100 100 100 78 69 72 74 64 56 48 45 40 32 24 25 35 81 100 99 100 90 100 100
100 100 100 100 97 87 77 69 59 56 54 50 47 49 53 55 45 41 42 43 44 49 50 51 48 44 41 43 50 70 84 83 78 73 66 58 52 45 42 32 23 23 54 90 93 100 89 100 100
97 93 88 83 73 56 48 47 57 60 62 64 72 68 62 50 46 48 49 48 55 51 47 42 38 37 38 40 40 37 30 34 40 39 44 44 37 32 33 31 21 21 38 80 78 100 100 100 100
64 66 61 61 58 51 59 45 67 58 57 72 71 73 67 70 67 56 53 57 49 41 37 33 30 28 20 22 20 16 15 17 20 19 23 24 23 19 18 20 18 16 27 76 73 100 100 100 100
82 86 80 70 53 51 53 57 56 72 74 74 72 65 60 54 52 59 56 44 48 50 43 31 26 21 16 15 13 13 13 15 17 18 17 19 17 13 14 12 15 15 17 31 48 100 100 87 100
97 83 70 61 63 64 73 62 58 64 62 57 53 53 54 51 51 44 44 42 38 32 24 18 16 14 13 13 14 12 10 9 9 10 10 9 10 10 9 10 9 11 14 18 26 91 95 87 100
91 86 82 69 70 60 63 56 56 59 56 51 48 52 52 46 31 35 31 25 22 18 15 14 12 12 13 11 8 8 7 8 8 7 7 6 6 6 6 6 8 12 12 16 21 63 75 100 93
74 73 71 61 66 64 62 54 53 51 50 50 49 45 36 28 26 23 22 19 16 13 12 13 14 11 8 8 8 10 12 11 9 9 8 9 7 7 5 5 6 8 12 14 18 35 50 79 100
89 96 90 77 60 52 58 53 52 53 48 47 49 34 28 24 21 20 16 13 12 13 17 14 10 9 10 15 24 25 21 19 15 13 15 14 10 8 6 5 5 7 12 13 17 21 33 51 75
82 79 80 82 61 54 50 46 53 46 40 46 36 28 23 22 16 13 12 13 18 17 14 15 17 18 25 38 40 33 26 24 21 18 17 14 11 8 7 6 5 6 10 14 15 18 23 36 42
98 85 81 75 65 58 49 42 50 41 52 37 29 21 17 13 11 12 15 16 13 16 21 26 28 28 42 41 40 32 30 28 27 25 23 19 15 12 9 7 6 6 7 11 14 17 21 27 35
88 80 76 78 77 71 63 38 52 50 36 26 20 16 13 12 16 16 14 17 22 30 40 38 34 42 44 38 39 40 36 42 35 31 29 26 22 18 13 10 7 6 6 9 16 16 17 21 26

GFSSGP_250_rhum_138.txt.gz
RH
100 100 99 61 59 100 100 78 77 62 78 81 63 46 38 32 33 26 21 23 24 26 30 33 24 24 18 18 17 17 20 22 23 25 41 45 37 40 35 31 30 29 26 38 45 40 26 22 25
69 73 64 68 57 34 94 100 100 58 71 76 74 73 50 43 43 34 27 24 30 36 40 42 37 38 51 23 21 20 19 20 23 24 23 41 54 39 43 37 35 37 35 46 53 53 36 24 31
48 49 42 39 34 30 23 60 100 98 96 60 55 58 76 56 53 41 41 34 37 43 43 52 51 82 89 51 36 25 25 20 19 25 25 24 52 64 46 45 36 36 37 41 61 62 44 26 32
47 44 41 42 36 37 36 52 72 72 80 63 64 52 52 69 61 61 59 40 41 29 52 42 46 95 100 82 56 34 25 28 20 20 24 28 48 80 72 52 48 39 40 43 67 76 66 36 37
57 51 46 44 40 48 43 68 71 65 59 62 52 48 50 56 83 82 75 74 60 34 33 43 74 98 100 90 81 59 36 28 37 31 34 34 30 66 91 87 54 47 42 42 62 80 73 58 43
69 60 63 70 53 46 53 62 60 62 57 56 47 48 56 58 100 100 100 100 72 53 47 65 88 99 100 100 100 75 51 28 34 40 44 59 72 48 72 98 100 86 57 50 49 64 72 72 57
76 67 63 61 53 47 43 38 37 40 58 56 61 59 61 80 98 100 93 77 71 67 58 83 77 100 100 87 100 86 66 48 32 47 44 59 58 78 79 66 98 100 100 100 68 80 91 64 56
67 47 41 45 49 68 55 49 44 54 52 61 48 61 70 66 71 80 76 87 81 81 88 84 70 64 84 86 100 100 94 74 60 34 60 41 73 82 100 88 65 98 100 100 86 86 100 90 69
58 49 40 40 44 58 50 49 55 65 79 79 80 93 89 85 90 90 86 84 80 70 69 83 81 85 89 71 100 100 100 100 96 48 49 60 57 87 100 76 74 71 98 99 80 91 100 84 42
66 58 45 51 48 45 42 51 56 78 72 75 71 61 78 80 97 92 85 82 68 59 52 67 76 99 100 77 62 89 86 93 86 49 45 48 46 59 65 62 70 80 96 89 99 86 91 93 81
59 58 65 61 47 46 48 60 60 64 67 63 62 59 53 55 80 89 70 62 51 47 48 54 54 87 100 100 100 98 99 100 99 98 70 48 41 53 66 82 78 69 89 100 100 100 96 98 86
86 81 86 70 54 42 50 66 60 64 62 58 54 45 46 49 57 60 64 67 55 46 42 41 42 46 60 74 62 91 74 44 48 52 75 42 41 30 36 64 84 66 74 99 100 100 100 100 92
100 97 84 73 60 41 45 46 56 56 56 53 50 41 35 32 33 42 50 61 58 52 49 42 38 36 38 36 34 30 27 27 41 40 42 49 37 42 55 62 56 70 69 72 100 97 87 100 100
89 77 76 83 68 52 43 40 39 44 48 52 47 44 36 32 28 28 35 41 50 52 49 48 43 38 36 44 51 46 44 40 39 48 53 55 76 85 100 80 59 62 45 73 98 100 97 90 94
67 73 90 80 66 55 48 44 51 48 49 55 53 54 51 45 48 46 52 56 59 62 58 55 52 52 62 69 59 59 69 72 89 93 93 79 75 92 90 77 58 36 46 40 93 84 99 100 100
72 71 60 51 44 40 43 49 65 61 62 67 69 74 68 71 83 85 80 77 72 62 70 76 75 67 64 62 62 52 59 56 55 80 85 80 84 84 100 88 53 46 35 34 47 72 100 100 92
77 73 62 54 46 49 66 69 85 96 89 85 86 88 86 80 75 74 82 87 87 86 81 76 69 58 55 55 54 52 54 66 71 57 50 46 47 45 47 40 39 37 29 30 29 34 64 97 100
50 40 46 50 64 85 97 99 92 95 98 98 100 100 100 100 100 96 94 93 83 74 64 60 58 56 58 52 47 41 40 38 38 45 51 51 55 49 47 41 36 36 34 27 24 26 34 43 86
38 43 48 49 65 90 92 82 82 98 100 100 100 100 100 87 71 66 55 50 50 52 53 56 61 68 72 66 61 56 46 39 36 35 32 34 36 37 35 34 32 31 28 28 26 22 24 31 77
55 52 52 54 57 65 83 96 100 100 100 99 89 74 69 64 52 43 48 47 47 49 52 52 52 48 46 46 44 40 36 37 34 31 27 25 27 30 28 24 25 24 19 22 26 23 21 25 48
75 79 71 63 64 70 69 74 70 74 75 72 75 76 72 63 54 57 54 45 46 45 46 47 42 40 38 34 32 31 30 27 23 24 24 24 25 24 24 23 20 19 18 16 17 19 20 21 29
89 90 92 99 98 98 98 100 100 82 77 74 72 69 68 64 58 49 41 41 44 47 45 38 34 31 31 27 24 22 18 17 16 18 18 20 22 20 16 14 16 18 17 16 15 14 16 20 21
100 100 100 98 100 92 87 84 97 91 88 87 77 68 69 61 50 48 46 51 52 46 41 35 29 26 22 19 17 16 14 13 13 12 12 11 10 11 11 11 11 10 12 12 14 16 13 16 18
100 100 100 86 74 78 71 75 84 60 72 67 70 73 61 52 50 45 47 53 41 36 35 30 26 20 17 15 14 14 12 12 12 11 10 10 10 9 8 8 8 7 8 8 9 11 12 12 15
62 95 100 100 87 78 70 75 91 94 92 93 80 62 54 45 45 50 59 44 37 34 29 26 20 17 14 13 14 13 12 11 10 9 8 7 9 10 9 8 8 8 7 8 9 8 8 10 11
70 68 100 100 100 90 69 68 87 100 92 84 66 55 50 46 48 52 46 40 32 25 20 16 14 12 11 10 11 9 9 10 10 11 11 11 10 10 8 7 7 7 6 7 9 10 9 9 9
100 82 79 77 86 88 86 71 67 92 72 62 50 45 47 50 51 48 44 34 25 19 15 13 11 10 10 9 9 10 12 12 12 14 16 20 20 18 15 13 11 9 8 6 6 7 8 9 10
100 99 93 87 81 76 63 61 85 84 58 47 49 45 57 54 51 44 32 21 17 14 12 11 10 10 10 11 14 14 15 16 25 28 32 32 30 27 20 18 15 14 13 11 8 7 7 7 8
100 100 98 93 78 82 77 64 98 65 58 54 56 67 59 54 42 27 20 16 13 12 12 11 11 13 14 15 19 25 25 30 35 38 42 45 52 46 32 25 22 21 20 19 17 15 10 7 7
100 100 85 76 92 91 79 63 94 66 58 63 70 64 60 56 28 20 16 13 14 12 14 15 13 17 20 26 34 34 34 39 41 48 72 68 68 69 56 48 40 33 26 20 17 15 14 13 12

GFSSGP_250_rhum_141.txt.gz
RH
100 92 59 52 53 53 44 64 48 35 83 100 99 48 52 48 58 43 34 35 36 31 28 28 30 30 31 38 35 71 51 23 21 18 16 16 18 22 24 61 60 44 39 31 30 32 40 48 47
72 70 60 43 43 45 36 41 33 29 36 32 84 91 83 62 50 52 52 46 44 41 36 38 42 37 32 44 44 72 58 54 39 26 20 16 16 20 24 35 78 55 43 38 35 30 38 45 52
53 60 54 52 46 50 38 40 35 32 31 33 41 57 60 62 60 54 55 58 59 60 50 43 42 40 33 46 47 66 93 70 60 47 31 22 17 23 28 45 71 86 52 44 40 32 33 44 57
86 58 51 50 53 50 52 52 42 36 47 50 54 56 63 70 67 55 56 70 66 98 86 61 45 49 30 36 40 75 100 92 86 59 48 34 40 22 33 54 100 100 91 51 42 42 38 40 58
89 94 86 59 49 55 69 70 56 42 43 61 59 52 54 58 60 60 95 82 85 96 100 81 64 63 47 40 51 95 100 100 98 84 61 32 36 52 55 56 74 99 100 100 67 53 44 42 61
100 100 88 88 75 66 54 52 47 44 41 40 35 35 39 70 59 68 77 72 80 98 100 100 100 87 64 58 70 96 100 100 100 100 64 45 35 46 83 53 69 78 85 100 100 80 62 70 65
60 73 81 80 65 54 41 38 35 36 38 46 41 43 67 63 80 75 66 64 61 61 72 81 64 79 73 67 98 86 84 85 100 100 100 93 48 44 56 71 52 84 85 94 100 100 100 100 100
61 71 60 55 51 51 48 43 34 36 42 50 42 52 100 84 83 82 87 76 66 74 82 71 80 80 75 70 69 74 52 65 66 76 100 100 94 80 47 64 55 83 100 87 87 100 100 100 90
89 74 49 45 80 60 52 43 42 46 52 54 79 72 94 91 88 86 89 90 86 91 98 97 83 75 70 69 66 67 67 60 78 74 98 79 94 86 98 84 99 89 90 99 94 86 100 100 86
98 70 52 43 71 83 65 52 68 59 50 82 88 88 86 80 73 69 71 74 78 73 86 92 76 64 52 53 44 47 64 67 100 93 78 83 73 88 83 100 100 100 80 90 87 84 98 98 89
100 86 57 44 48 87 100 100 85 62 48 44 74 68 77 71 64 62 63 56 56 57 60 77 66 62 57 48 44 38 47 60 92 98 100 100 98 69 52 66 68 97 100 100 98 96 84 92 99
82 77 64 66 95 100 99 88 82 64 51 44 42 57 57 58 64 60 51 44 42 45 48 47 52 57 68 60 55 61 49 38 40 41 45 46 66 54 34 23 33 48 72 99 100 100 100 95 100
73 87 69 100 100 99 88 71 75 81 64 48 39 43 52 49 54 57 57 57 52 51 50 57 64 64 64 63 58 50 50 44 39 38 41 39 32 32 31 38 24 26 37 38 69 94 100 100 100
71 86 96 98 92 84 64 73 66 70 57 43 37 36 39 39 41 51 51 57 59 56 61 58 64 68 73 81 79 70 61 48 43 38 44 55 44 35 38 42 47 34 32 33 39 56 77 100 100
85 76 73 84 83 68 65 56 56 52 44 38 35 35 41 47 42 49 50 48 57 65 67 60 62 69 74 78 77 79 77 70 66 71 74 63 58 48 34 35 42 54 48 52 38 37 37 61 100
70 62 62 61 54 56 66 61 61 47 44 46 44 46 49 51 54 49 57 81 78 81 90 91 95 95 95 94 97 97 97 98 90 74 65 58 55 51 45 41 38 40 74 79 75 45 25 38 74
58 55 48 40 36 44 52 37 33 43 46 57 58 68 71 70 78 76 79 88 90 90 90 87 90 91 86 78 71 68 66 62 60 58 54 52 52 48 45 40 38 37 34 35 62 55 31 26 40
42 41 40 40 39 41 41 48 47 93 88 58 52 55 74 95 100 100 100 100 100 100 98 91 81 68 54 46 42 43 46 47 51 55 52 52 47 46 40 38 36 35 31 31 29 30 32 23 29
48 52 57 55 49 51 54 57 57 52 77 72 92 100 100 100 100 100 100 93 77 68 64 61 63 59 56 52 47 42 41 40 40 38 37 39 38 34 33 35 30 29 30 28 24 26 22 19 22
62 64 57 48 48 70 80 65 71 61 83 86 87 74 72 70 67 63 63 65 67 69 65 57 53 54 51 46 41 34 31 30 30 32 34 33 30 29 28 24 23 23 22 22 25 22 20 20 19
75 69 64 77 76 78 66 97 99 98 100 100 100 100 99 94 85 78 65 58 54 54 53 50 47 46 42 35 32 29 25 24 24 24 25 24 25 25 23 22 22 22 20 19 20 20 20 19 19
77 69 93 68 69 82 84 99 100 100 100 92 93 98 76 65 61 61 60 64 68 68 61 55 49 41 36 30 27 24 23 22 19 18 18 17 18 19 19 18 17 15 15 16 17 17 18 19 19
100 100 90 85 68 62 81 87 99 97 87 81 94 96 87 79 83 71 69 71 66 62 60 47 38 34 30 26 26 23 20 16 15 14 12 11 11 11 12 13 13 11 10 12 14 16 17 17 16
100 100 100 100 100 88 100 100 100 100 98 74 64 52 64 76 71 61 60 57 52 45 40 39 37 33 28 23 19 17 15 13 12 11 10 10 10 9 8 9 10 10 10 10 10 10 12 13 13
100 100 100 100 100 100 100 99 100 97 83 86 81 63 51 50 56 60 62 52 46 42 41 42 35 26 22 16 13 12 11 10 10 10 9 9 9 9 9 9 9 9 8 8 7 8 8 10 10
87 95 100 100 100 100 88 96 100 94 84 80 88 70 60 58 63 70 56 45 40 40 44 35 26 17 12 11 10 9 10 9 9 9 8 8 9 9 9 9 9 9 9 9 8 8 9 8 7
100 100 96 98 100 100 100 100 100 95 96 99 64 66 60 57 56 55 47 48 48 46 40 26 14 11 11 10 9 9 9 8 9 10 11 12 13 13 14 15 15 13 14 12 9 7 7 7 8
91 98 100 96 95 100 98 100 100 100 100 72 75 67 60 61 66 50 50 52 52 47 30 14 11 11 10 9 9 10 10 11 11 14 20 26 28 30 30 27 21 20 17 16 15 12 10 9 7
99 100 100 100 100 100 92 97 100 98 85 74 67 63 63 69 55 54 50 58 48 35 17 14 11 12 10 10 11 13 17 20 24 34 40 43 49 63 63 51 43 32 25 22 19 18 15 13 11
100 100 100 100 100 100 100 92 100 82 78 63 74 72 71 68 57 56 47 50 39 20 16 14 12 12 13 16 20 24 29 32 42 46 50 58 80 84 72 71 68 51 39 32 28 26 22 19 17

GFSSGP_250_rhum_147.txt.gz
RH
40 27 34 31 22 56 51 73 55 52 48 32 36 34 34 30 25 26 64 100 99 73 32 28 42 55 86 87 83 67 51 49 45 44 40 43 37 34 40 63 77 77 65 40 38 37 32 28 35
59 43 40 30 21 22 33 98 100 86 66 45 34 38 45 51 36 29 26 53 23 36 26 28 30 44 52 86 94 86 44 64 78 69 56 56 51 39 38 61 99 100 73 57 41 49 48 37 49
31 29 25 23 22 26 19 28 74 100 95 69 55 57 65 52 42 36 34 33 39 48 41 29 37 50 58 58 68 71 88 99 100 100 85 66 64 55 52 100 100 100 97 71 57 70 61 57 63
54 46 42 41 34 21 31 64 64 55 47 50 100 88 73 56 50 42 36 36 32 29 34 35 39 59 62 53 84 100 100 100 100 100 100 99 100 75 52 100 100 87 92 91 67 36 44 60 56
93 75 50 48 52 34 41 95 63 39 56 35 58 66 72 67 63 48 40 32 32 35 43 38 34 43 75 88 84 85 100 98 100 100 100 100 87 79 70 76 81 74 80 100 100 54 58 61 59
92 83 88 96 77 55 33 33 31 36 33 56 66 46 50 39 60 73 61 42 47 55 58 45 47 67 95 89 81 86 77 66 96 100 100 96 94 87 80 93 71 62 64 52 95 100 98 79 92
100 98 100 98 81 66 54 86 40 31 81 91 79 57 74 38 50 66 64 57 49 46 44 47 59 82 85 70 84 98 100 99 95 100 100 100 100 95 92 76 66 61 58 53 100 100 100 97 100
100 100 94 79 69 62 62 75 32 76 99 71 48 65 71 58 70 71 64 65 56 46 50 85 96 88 67 67 65 70 75 82 98 86 84 96 84 76 72 57 65 57 47 40 87 94 100 100 97
100 96 78 65 97 51 46 49 32 27 22 33 66 49 71 86 91 85 61 57 59 54 47 45 46 45 40 50 53 56 53 61 69 75 67 53 66 72 79 51 49 36 47 71 81 88 79 60 83
90 84 69 67 63 51 46 36 41 30 31 72 51 46 80 100 100 94 63 66 70 56 48 43 41 42 41 41 39 41 44 45 44 44 48 55 56 52 44 44 45 41 45 100 79 100 100 75 76
96 94 68 63 66 63 37 32 43 46 66 71 72 80 99 100 100 89 64 71 69 58 50 45 38 36 39 42 42 46 49 46 46 50 48 49 46 48 49 46 43 45 45 54 85 85 100 100 95
100 81 71 62 59 44 32 59 72 82 73 63 99 83 88 92 78 63 58 69 72 59 48 41 37 39 45 55 58 54 58 57 51 62 68 66 66 58 58 53 50 44 44 42 46 89 83 100 98
81 64 50 39 37 33 38 47 42 48 29 46 48 45 42 58 60 50 50 52 52 50 49 46 44 42 44 50 50 50 54 52 52 56 55 53 58 64 66 69 59 60 49 44 37 41 61 43 44
62 62 42 31 27 30 40 33 31 35 57 39 48 54 55 59 49 42 58 66 57 38 38 39 44 45 45 48 62 77 64 64 78 81 76 70 82 79 78 84 73 62 55 51 47 36 33 29 21
49 54 44 39 32 31 30 27 31 43 35 41 45 46 40 36 39 49 39 34 34 34 36 59 56 95 99 97 86 96 99 100 98 95 96 86 78 72 74 87 82 72 63 49 45 47 34 27 24
65 42 34 33 34 34 32 30 35 40 38 38 38 38 36 33 33 31 27 28 33 42 41 35 40 52 92 93 84 77 69 64 52 51 53 56 60 63 67 65 62 63 63 51 45 45 47 36 29
43 38 40 39 39 37 35 40 48 51 48 45 43 41 38 41 43 48 60 59 60 58 59 67 66 60 52 48 48 48 49 49 47 45 44 41 36 36 38 35 34 38 40 42 38 42 39 42 39
47 45 47 47 41 34 56 45 46 54 52 56 56 60 62 64 65 59 54 66 82 80 80 94 92 82 70 55 51 46 48 52 46 40 38 35 34 31 29 28 28 28 27 26 26 28 33 35 41
52 51 57 56 40 50 49 53 80 64 61 54 62 74 74 68 54 44 70 82 86 79 85 89 74 71 60 68 60 48 48 49 45 40 36 32 29 26 24 23 23 24 25 24 20 22 22 21 24
80 72 70 56 50 46 56 48 47 42 51 67 100 100 100 100 100 100 100 98 71 90 83 67 75 88 85 75 69 75 80 66 58 46 37 32 28 24 23 23 21 20 20 20 19 19 19 21 21
87 92 83 75 67 66 54 34 38 60 69 98 67 71 88 94 100 100 100 100 100 100 96 92 96 83 79 65 87 80 53 46 41 37 33 28 24 22 19 16 14 13 13 12 14 15 15 17 18
77 74 73 76 79 79 88 75 74 99 98 82 71 41 38 47 56 51 69 73 86 85 65 64 72 76 48 57 61 56 50 39 39 36 33 28 25 18 12 8 6 6 6 8 10 10 11 11 15
79 88 82 99 100 98 100 100 100 100 84 80 81 97 81 93 68 48 54 78 70 48 73 84 68 56 50 56 68 58 44 42 33 31 24 20 15 8 6 6 5 5 5 5 6 7 8 8 10
73 96 100 100 100 83 100 100 100 100 100 100 97 89 90 80 62 55 58 80 71 88 88 79 73 55 56 62 61 54 48 39 33 24 19 14 7 7 6 6 6 6 6 6 6 6 6 7 7
100 100 100 100 100 100 100 100 100 100 100 100 100 100 82 66 54 72 100 86 87 80 79 66 62 64 62 61 56 54 46 36 23 18 13 8 7 6 7 7 7 6 6 6 7 7 7 7 7
100 100 100 100 100 99 94 100 100 100 100 100 100 90 79 81 97 99 89 100 71 57 61 68 69 71 66 59 55 54 42 28 20 13 9 8 8 8 7 8 8 8 7 7 7 7 7 8 8
80 69 100 99 100 100 100 88 100 100 100 100 93 98 92 85 72 79 100 89 70 64 68 83 89 68 62 64 58 46 36 24 16 11 10 11 12 11 10 10 12 11 12 12 12 11 9 8 8
66 96 95 86 90 100 100 100 100 100 99 92 100 96 92 72 59 85 100 86 64 84 97 93 69 70 70 59 50 41 27 22 13 13 16 20 20 19 22 25 29 34 33 27 28 24 21 16 12
100 100 97 93 92 100 100 100 93 99 100 92 89 96 64 57 77 98 100 90 85 94 78 72 70 78 70 60 47 29 23 18 14 19 25 27 31 37 42 47 58 62 66 58 54 47 34 27 21
100 100 100 100 100 100 88 70 78 71 70 70 60 70 61 72 90 81 77 79 81 86 87 82 78 70 70 49 29 23 21 15 21 28 33 36 45 55 64 66 71 80 84 72 69 64 53 43 38

GFSSGP_250_rhum_153.txt.gz
RH
99 94 80 67 38 59 76 97 84 70 72 48 36 38 26 24 21 18 25 19 46 96 99 99 100 100 100 100 99 83 45 38 39 39 35 43 61 48 37 68 90 78 94 91 88 91 73 54 80
70 69 63 58 43 64 81 100 100 95 99 75 55 52 34 28 27 23 18 28 62 98 100 100 100 100 100 100 75 51 34 32 34 37 40 44 56 57 50 63 72 62 59 85 100 100 66 55 58
69 66 58 50 43 49 55 70 100 100 100 88 75 60 44 37 28 40 32 25 33 60 74 85 100 100 100 75 65 52 40 35 51 60 54 53 77 89 57 65 83 81 63 99 98 76 64 60 60
73 55 57 49 45 46 50 61 84 100 99 89 93 77 61 53 35 53 33 50 42 69 80 81 90 72 65 85 83 43 43 51 57 66 84 90 93 74 66 67 76 80 69 70 74 77 94 81 94
57 36 34 30 26 27 36 32 49 77 97 97 92 100 89 60 51 33 36 84 60 40 44 53 68 50 44 64 76 63 60 52 62 84 98 100 86 72 70 70 78 86 88 96 86 88 98 100 94
86 62 62 52 44 28 27 25 41 69 96 76 73 88 71 50 38 31 43 47 76 71 51 44 38 48 43 48 56 57 54 53 62 85 85 77 65 58 62 69 70 84 95 90 87 78 77 82 92
100 98 81 66 57 46 35 35 26 38 64 68 77 58 41 32 32 49 53 69 79 65 56 42 43 44 49 60 63 56 61 68 59 53 58 71 72 66 62 70 68 64 60 61 65 65 64 57 51
86 100 92 76 41 50 46 43 36 37 46 68 66 57 48 39 40 49 43 48 33 38 40 46 54 66 83 88 61 52 59 63 62 58 57 63 54 55 66 76 76 70 57 49 48 49 46 43 41
59 71 73 80 82 80 51 56 42 58 80 64 60 51 44 29 47 62 56 44 32 31 44 64 91 100 99 85 67 52 66 69 63 55 49 45 49 54 60 61 59 53 52 52 50 45 38 38 40
64 80 78 74 75 58 57 54 38 77 53 46 36 27 25 48 59 50 41 33 30 40 70 98 100 100 96 87 74 68 65 63 62 58 53 51 47 46 46 50 53 51 50 52 54 50 52 56 45
58 69 77 88 83 60 58 40 59 66 59 45 30 27 28 30 37 37 32 30 45 63 72 69 80 95 85 76 71 70 66 63 61 56 46 41 39 39 44 42 43 59 72 69 60 53 51 55 55
44 65 60 78 74 78 62 52 57 50 45 35 32 29 28 27 25 24 25 27 36 41 57 67 63 59 58 52 42 35 35 35 33 30 30 32 33 36 40 54 56 68 71 70 69 69 66 63 62
60 75 80 82 84 84 56 57 62 67 51 37 30 30 28 23 23 24 31 37 34 32 35 37 37 33 31 31 27 24 25 26 27 26 28 29 30 31 30 29 28 26 26 26 27 36 52 64 58
70 94 91 88 90 74 55 71 98 71 49 39 37 32 28 24 24 29 33 38 39 36 38 39 36 36 36 33 32 34 39 46 48 42 57 74 76 74 66 36 28 24 22 20 20 22 24 25 28
85 100 89 99 76 64 63 62 81 64 43 43 41 34 36 42 48 42 40 43 37 34 40 48 47 49 44 35 35 40 41 41 46 53 55 60 53 37 27 29 28 28 30 29 28 24 22 21 20
83 84 94 81 72 81 89 99 78 70 48 47 47 46 38 52 47 49 40 38 38 34 38 42 32 45 58 41 34 34 33 48 49 44 34 29 30 34 32 36 39 42 49 53 52 42 39 32 32
100 81 78 97 100 99 99 100 87 60 52 57 62 56 58 59 70 60 53 56 58 61 90 94 80 62 47 44 44 43 44 39 38 31 30 36 41 36 34 37 42 44 47 54 55 58 53 52 45
99 99 94 98 100 100 100 100 81 68 68 66 66 66 66 76 62 58 66 73 61 69 68 63 63 55 67 76 74 70 50 51 54 42 39 41 36 36 37 43 44 41 42 64 78 79 81 78 64
100 100 94 100 100 100 100 98 94 74 61 65 52 56 86 77 78 59 40 45 55 64 61 57 63 83 90 82 76 64 72 67 59 51 45 40 40 38 37 40 42 56 55 66 84 88 94 81 41
100 91 100 100 100 100 100 100 98 99 72 72 84 82 85 100 86 76 78 72 52 64 77 96 100 100 87 74 60 60 58 62 66 62 49 40 37 37 47 57 67 67 64 77 50 26 17 17 18
100 100 100 100 100 87 98 100 100 76 86 96 91 99 100 98 98 100 95 79 90 86 78 75 83 100 100 74 51 55 58 60 54 47 41 39 37 50 74 88 75 60 50 30 16 11 8 8 8
92 100 100 100 100 94 92 88 100 100 97 86 98 100 100 100 100 89 81 86 83 82 73 70 85 79 67 62 65 62 54 50 47 45 47 44 45 67 78 70 52 36 23 13 9 8 6 6 5
99 100 100 100 100 86 73 60 88 98 77 82 91 100 100 100 100 100 85 91 74 66 72 78 70 70 67 76 76 63 52 46 40 45 42 49 58 78 75 62 31 20 12 9 7 6 5 5 5
100 100 100 100 100 74 90 96 87 86 100 98 100 100 100 100 99 98 85 67 73 76 78 69 61 59 73 84 68 55 46 40 44 42 56 63 82 78 52 40 18 14 9 8 8 8 8 7 6
99 100 100 100 100 96 100 96 93 78 83 99 100 99 76 68 79 92 84 88 96 89 80 63 68 81 87 76 59 46 40 50 52 56 66 68 86 62 44 19 17 11 10 13 14 13 11 8 7
100 100 100 100 95 100 100 94 100 100 100 100 100 100 90 97 100 78 87 90 94 64 73 82 84 80 66 54 40 43 47 51 64 70 70 86 65 52 21 18 15 14 18 24 25 21 18 16 13
100 99 100 100 100 100 100 100 100 100 100 100 87 94 100 96 83 80 74 70 62 70 78 78 70 69 49 38 42 53 63 72 74 85 79 74 70 26 18 18 16 22 36 42 35 37 37 33 26
86 98 94 100 100 100 85 86 100 100 100 100 100 97 98 82 72 65 63 79 83 88 83 68 58 40 34 40 74 69 74 84 87 76 79 73 37 17 19 16 25 34 52 56 62 57 53 49 41
100 100 100 100 100 92 74 70 94 98 100 95 96 84 67 63 67 65 78 96 86 76 62 50 39 38 57 97 74 94 84 92 88 82 73 47 20 19 17 20 35 44 74 74 76 83 77 66 57
88 98 100 100 100 100 100 90 96 89 84 72 61 72 79 81 82 97 99 76 72 58 44 38 53 78 100 80 100 86 99 93 86 82 59 19 19 19 18 30 47 64 89 92 84 82 84 72 60

GFSSGP_250_rhum_156.txt.gz
RH
90 72 59 66 58 66 55 54 48 49 61 86 89 75 88 69 56 46 39 30 23 19 22 66 88 100 100 100 87 92 100 100 98 74 58 32 26 29 33 33 35 35 32 39 46 56 50 54 96
70 69 60 65 59 50 49 54 52 52 59 59 67 66 65 61 70 61 53 36 27 22 22 76 100 100 100 100 100 100 100 100 92 70 59 38 31 35 38 45 46 50 45 55 70 86 81 76 96
80 99 80 70 60 35 26 26 27 31 35 26 26 46 57 76 70 60 48 35 29 33 36 53 73 87 100 100 100 100 98 77 76 87 75 53 46 41 44 49 53 63 61 53 74 88 100 100 83
100 100 93 88 67 53 44 43 42 29 24 30 36 31 55 88 59 48 44 33 34 36 70 81 94 100 100 100 82 97 87 67 60 67 62 55 54 62 71 70 74 55 53 54 60 85 89 90 99
100 100 93 94 89 79 78 77 72 46 28 39 40 38 63 74 59 49 42 36 38 37 39 43 71 79 72 64 63 58 62 71 77 66 63 64 60 55 48 44 36 41 38 43 51 51 61 84 82
85 96 97 85 83 66 58 63 60 55 46 49 46 47 52 67 81 64 51 44 44 44 53 57 70 77 74 74 55 62 74 82 93 82 58 57 62 60 53 46 39 38 35 36 38 41 43 43 45
64 52 50 50 54 48 53 48 46 54 58 55 58 58 43 77 81 65 64 56 62 67 69 60 48 31 29 37 41 50 70 99 100 82 56 55 65 61 58 52 45 43 40 37 38 40 42 43 38
62 55 48 41 39 38 42 56 49 57 58 46 72 47 44 54 48 37 50 46 45 62 69 62 46 33 25 27 34 66 90 89 90 77 58 53 56 56 56 56 53 48 42 38 37 37 39 41 39
71 71 56 42 36 37 48 49 58 61 54 61 47 35 54 43 34 28 29 21 36 47 45 38 36 38 38 40 50 60 57 64 73 71 63 59 59 59 57 54 46 42 43 41 42 43 45 39 38
74 86 69 54 49 32 26 31 36 48 57 68 48 57 51 41 37 31 25 25 27 27 29 36 54 50 49 57 52 45 62 75 68 59 51 46 45 43 42 35 35 38 38 48 50 48 56 60 55
88 87 66 51 48 31 29 29 46 66 86 71 58 51 51 43 34 28 27 26 24 24 26 31 40 46 42 44 53 51 43 41 38 35 27 24 27 28 30 31 31 34 31 34 38 36 35 30 31
78 65 68 60 43 33 26 34 58 75 84 69 59 59 71 52 35 34 30 23 20 23 33 33 36 35 33 37 36 34 32 32 31 28 29 29 29 36 36 30 26 39 43 48 42 41 30 25 23
74 58 77 54 34 29 28 33 58 94 94 70 63 92 80 50 42 38 29 27 28 26 24 27 35 35 28 26 31 35 38 35 32 27 22 22 27 31 34 31 37 35 34 37 46 34 24 23 24
58 84 86 54 39 31 35 41 67 100 85 75 76 73 64 47 44 38 33 29 35 33 30 26 26 24 22 21 22 22 19 19 22 24 28 30 29 32 34 32 34 30 28 28 30 24 24 25 25
71 96 88 56 35 34 34 56 100 100 82 91 94 92 67 50 49 46 43 48 51 48 48 51 50 40 38 32 32 32 30 39 42 37 41 43 43 46 42 39 36 35 32 34 32 32 33 33 35
100 93 82 67 47 46 60 78 96 89 90 100 100 92 73 57 60 60 57 49 52 59 56 55 49 37 38 50 43 45 48 49 39 41 46 51 52 50 47 47 46 46 46 42 38 35 34 47 49
100 93 77 58 52 80 51 79 100 98 100 100 100 100 74 64 62 62 68 61 57 54 57 50 48 46 53 44 60 70 65 62 78 63 62 61 50 44 43 42 46 42 42 39 37 37 42 61 65
100 85 86 79 100 60 86 100 91 84 100 100 100 100 98 79 73 76 59 67 70 70 72 62 56 65 62 57 59 64 65 54 60 76 89 75 59 54 47 45 39 40 41 41 41 47 62 57 66
100 91 80 98 100 74 68 99 100 100 100 100 100 100 100 100 87 81 86 82 79 84 67 61 79 80 74 72 72 61 51 55 68 68 66 66 64 60 50 47 44 43 44 44 63 64 69 78 51
100 85 94 100 100 75 77 94 92 100 100 100 100 100 100 100 100 89 94 100 100 83 76 76 81 88 74 69 75 66 65 63 63 58 57 55 61 59 54 47 39 41 58 54 58 48 34 24 21
100 100 100 97 90 77 81 78 100 100 100 100 100 100 100 100 100 95 100 94 81 91 85 77 100 84 73 78 81 61 64 58 56 60 62 53 51 49 46 41 48 49 60 65 40 31 25 20 13
100 100 100 97 92 98 88 80 100 100 100 100 100 100 100 100 95 100 98 85 99 90 84 100 99 93 71 69 54 62 59 60 67 67 61 58 43 41 39 53 59 59 68 39 32 27 14 12 9
99 100 100 100 100 100 96 76 85 100 100 100 100 100 100 100 100 100 100 100 100 98 100 96 100 83 76 56 56 58 63 77 71 65 60 42 38 48 46 62 69 63 53 32 24 13 12 9 8
100 100 100 100 100 83 100 100 100 100 100 100 100 100 100 100 100 100 100 100 100 100 100 97 77 70 61 61 69 72 74 66 62 54 43 36 44 49 63 77 62 46 42 23 14 14 11 10 14
100 100 100 90 82 78 95 95 91 88 100 100 100 100 100 100 100 100 100 100 100 100 85 76 71 70 68 74 77 78 71 70 56 40 42 44 67 57 95 70 57 50 32 15 15 13 13 20 23
100 100 100 97 98 99 94 76 100 77 73 100 100 100 98 100 100 100 100 100 100 99 89 86 78 66 72 77 66 82 70 51 40 40 49 82 77 84 72 65 54 44 18 17 15 15 28 35 41
100 100 100 100 100 100 100 100 100 100 100 100 100 100 100 100 100 100 100 100 100 99 98 91 65 72 67 76 90 75 54 40 39 54 81 99 92 76 71 71 53 24 19 17 16 27 46 59 58
100 100 100 100 100 99 99 96 95 97 100 91 85 98 99 96 91 89 94 92 100 100 98 80 81 88 95 98 72 56 41 40 63 83 90 99 81 79 80 69 36 18 20 17 25 43 74 74 76
89 98 99 100 95 88 74 65 76 93 80 74 82 83 85 87 84 86 100 94 79 72 74 90 96 96 89 72 56 42 57 79 100 95 93 80 81 76 80 44 18 20 20 25 40 55 92 85 84
67 82 64 68 71 69 66 62 59 59 73 76 63 54 50 57 67 83 78 66 54 74 99 100 91 77 61 50 48 75 99 100 100 97 85 84 77 82 60 19 19 21 24 35 54 66 90 91 82